Change the Weather History Date:

Saturday, December 8, 2012

  Actual Average Record
Temperature  
Mean Temperature 60 °F -  
Max Temperature 71 °F 59 °F 78 °F (1956)
Min Temperature 49 °F 37 °F 18 °F (1964)
Degree Days  
Heating Degree Days 5    
Growing Degree Days 10 (Base 50)    
Moisture  
Dew Point 55 °F    
Average Humidity 89    
Maximum Humidity 100    
Minimum Humidity 56    
Precipitation  
Precipitation 0.00 in - - ()
Sea Level Pressure  
Sea Level Pressure 30.02 in    
Wind  
Wind Speed 1 mph (SSW)    
Max Wind Speed 10 mph    
Max Gust Speed -    
Visibility 8 miles    
Events Fog , Rain    
Averages and records for this station are not official NWS values.
T = Trace of Precipitation, MM = Missing Value Source: NWS Daily Summary

Daily Weather History Graph

Daily Weather History Graph

Search for Another Location

Airport or City:

Trip Planner

Search our weather history database for the weather conditions in past years. The results will help you decide how hot, cold, wet, or windy it might be!

Date:

Astronomy

Dec. 08, 2012 Rise Set
Actual Time 7:31 AM EST 5:33 PM EST
Civil Twilight 7:04 AM EST 6:00 PM EST
Nautical Twilight 6:33 AM EST 6:31 PM EST
Astronomical Twilight 6:03 AM EST 7:01 PM EST
Moon 2:08 AM EST (12/8) 1:51 PM EST (12/8)
Length of Visible Light 10h 56m
Length of Day
10h 02m
Waning Crescent, 28% of the Moon is Illuminated
Dec 8
Waning Crescent
Dec 13
New
Dec 20
First Quarter
Dec 28
Full
Jan 4
Last Quarter

Hourly Weather History & Observations

Time (EST) Temp. Dew Point Humidity Pressure Visibility Wind Dir Wind Speed Gust Speed Precip Events Conditions
12:15 AM 49.6 °F 48.2 °F 95% 30.02 in 10.0 mi Calm Calm - N/A   Clear
12:35 AM 49.6 °F 47.8 °F 94% 30.01 in 10.0 mi Calm Calm - N/A   Scattered Clouds
12:55 AM 49.1 °F 48.6 °F 98% 30.02 in 7.0 mi Calm Calm - N/A   Mostly Cloudy
1:15 AM 50.4 °F 49.5 °F 97% 30.01 in 10.0 mi Calm Calm - N/A   Overcast
1:35 AM 50.7 °F 50.0 °F 97% 30.01 in 10.0 mi Calm Calm - N/A   Overcast
1:55 AM 51.3 °F 50.2 °F 96% 30.01 in 10.0 mi Calm Calm - N/A   Overcast
2:15 AM 52.0 °F 50.0 °F 93% 30.01 in 10.0 mi Calm Calm - N/A   Mostly Cloudy
2:35 AM 52.0 °F 50.0 °F 93% 30.01 in 10.0 mi Calm Calm - N/A   Overcast
2:55 AM 51.6 °F 50.2 °F 95% 30.01 in 10.0 mi Calm Calm - N/A   Overcast
3:15 AM 51.1 °F 50.0 °F 96% 30.00 in 10.0 mi Calm Calm - N/A   Overcast
3:35 AM 52.5 °F 50.2 °F 92% 30.00 in 10.0 mi Calm Calm - N/A   Mostly Cloudy
3:55 AM 50.5 °F 49.5 °F 96% 30.00 in 10.0 mi Calm Calm - N/A   Mostly Cloudy
4:15 AM 51.3 °F 49.6 °F 94% 30.00 in 10.0 mi Calm Calm - N/A   Overcast
4:35 AM 50.9 °F 49.6 °F 95% 30.00 in 10.0 mi Calm Calm - N/A   Mostly Cloudy
4:55 AM 51.8 °F 50.5 °F 95% 30.00 in 10.0 mi Calm Calm - N/A   Mostly Cloudy
5:15 AM 52.2 °F 50.5 °F 94% 30.01 in 10.0 mi Calm Calm - N/A   Overcast
5:35 AM 52.7 °F 51.4 °F 95% 30.01 in 10.0 mi Calm Calm - N/A   Overcast
5:55 AM 53.1 °F 51.1 °F 93% 30.01 in 10.0 mi Calm Calm - N/A   Overcast
6:15 AM 53.4 °F 51.3 °F 92% 30.01 in 10.0 mi Calm Calm - N/A   Overcast
6:35 AM 52.9 °F 51.3 °F 94% 30.01 in 10.0 mi Calm Calm - N/A   Overcast
6:55 AM 52.7 °F 50.7 °F 93% 30.02 in 10.0 mi Calm Calm - N/A   Mostly Cloudy
7:15 AM 52.7 °F 51.3 °F 95% 30.03 in 10.0 mi Calm Calm - N/A   Overcast
7:35 AM 52.7 °F 51.1 °F 94% 30.03 in 10.0 mi Calm Calm - N/A   Overcast
7:55 AM 53.1 °F 52.0 °F 96% 30.03 in 10.0 mi Calm Calm - N/A   Overcast
8:15 AM 54.3 °F 52.3 °F 93% 30.04 in 10.0 mi Calm Calm - N/A   Overcast
8:35 AM 55.2 °F 53.1 °F 92% 30.05 in 10.0 mi WNW 3.5 mph - N/A   Overcast
8:55 AM 56.5 °F 53.8 °F 91% 30.05 in 10.0 mi Calm Calm - N/A   Overcast
9:15 AM 57.9 °F 54.5 °F 88% 30.04 in 10.0 mi SSE 4.6 mph - N/A   Overcast
9:35 AM 59.5 °F 55.2 °F 86% 30.05 in 10.0 mi SSE 3.5 mph - N/A   Overcast
9:55 AM 61.2 °F 56.1 °F 83% 30.05 in 10.0 mi SSE 4.6 mph - N/A   Overcast
10:15 AM 63.0 °F 57.2 °F 81% 30.05 in 10.0 mi South 4.6 mph - N/A   Overcast
10:35 AM 64.8 °F 57.7 °F 78% 30.05 in 10.0 mi Calm Calm - N/A   Mostly Cloudy
10:55 AM 67.1 °F 57.9 °F 72% 30.05 in 10.0 mi SW 6.9 mph - N/A   Mostly Cloudy
11:15 AM 67.1 °F 57.9 °F 72% 30.04 in 10.0 mi WSW 5.8 mph - N/A   Overcast
11:35 AM 68.4 °F 57.6 °F 68% 30.03 in 10.0 mi SSW 4.6 mph - N/A   Overcast
11:55 AM 69.6 °F 57.4 °F 65% 30.02 in 10.0 mi South 10.4 mph - N/A   Mostly Cloudy
12:15 PM 70.7 °F 55.8 °F 59% 30.01 in 10.0 mi SW 9.2 mph - N/A   Mostly Cloudy
12:35 PM 70.3 °F 55.6 °F 59% 30.00 in 10.0 mi SW 10.4 mph - N/A   Mostly Cloudy
12:55 PM 71.1 °F 54.9 °F 56% 30.00 in 10.0 mi WSW 8.1 mph - N/A   Overcast
1:15 PM 70.0 °F 55.6 °F 60% 29.99 in 10.0 mi SW 9.2 mph - N/A   Overcast
1:35 PM 70.0 °F 55.9 °F 61% 29.99 in 10.0 mi SW 9.2 mph - N/A   Overcast
1:55 PM 70.3 °F 56.7 °F 62% 29.99 in 10.0 mi WSW 5.8 mph - N/A   Overcast
2:15 PM 69.6 °F 57.2 °F 65% 29.99 in 7.0 mi SSW 8.1 mph - N/A Rain Light Rain
2:35 PM 64.9 °F 59.7 °F 83% 29.99 in 5.0 mi SSW 5.8 mph - N/A Rain Heavy Rain
2:55 PM 63.9 °F 60.1 °F 87% 29.99 in 10.0 mi Calm Calm - N/A   Overcast
3:15 PM 65.3 °F 60.6 °F 85% 29.99 in 10.0 mi Calm Calm - N/A   Overcast
3:35 PM 65.3 °F 61.2 °F 86% 29.99 in 10.0 mi Calm Calm - N/A   Overcast
3:55 PM 64.9 °F 61.2 °F 88% 29.99 in 10.0 mi Calm Calm - N/A   Overcast
4:15 PM 65.3 °F 61.2 °F 86% 29.99 in 10.0 mi Calm Calm - N/A   Overcast
4:35 PM 65.5 °F 60.4 °F 84% 29.99 in 10.0 mi Calm Calm - N/A   Overcast
4:55 PM 64.9 °F 60.8 °F 86% 30.00 in 10.0 mi Calm Calm - N/A   Overcast
5:15 PM 64.4 °F 60.6 °F 88% 30.00 in 10.0 mi Calm Calm - N/A   Overcast
5:35 PM 64.4 °F 60.4 °F 87% 29.99 in 10.0 mi Calm Calm - N/A   Overcast
5:55 PM 63.0 °F 60.1 °F 90% 29.99 in 10.0 mi Calm Calm - N/A   Mostly Cloudy
6:15 PM 61.7 °F 59.7 °F 93% 30.00 in 10.0 mi Calm Calm - N/A   Scattered Clouds
6:35 PM 60.6 °F 59.7 °F 97% 30.00 in 10.0 mi Calm Calm - N/A   Mostly Cloudy
6:55 PM 59.2 °F 59.0 °F 99% 30.01 in 0.8 mi Calm Calm - N/A   Overcast
7:15 PM 57.7 °F 57.7 °F 100% 30.01 in 0.2 mi Calm Calm - N/A Fog Fog
7:35 PM 57.2 °F 57.2 °F 100% 30.02 in 1.0 mi Calm Calm - N/A   Overcast
7:55 PM 56.1 °F 55.9 °F 99% 30.02 in 0.2 mi Calm Calm - N/A Fog Fog
8:15 PM 56.3 °F 56.1 °F 99% 30.03 in 5.0 mi Calm Calm - N/A   Mostly Cloudy
8:35 PM 56.7 °F 56.7 °F 100% 30.03 in 3.0 mi Calm Calm - N/A   Mostly Cloudy
8:55 PM 56.1 °F 56.1 °F 100% 30.03 in 2.5 mi Calm Calm - N/A   Scattered Clouds
9:15 PM 55.4 °F 55.4 °F 100% 30.03 in 0.5 mi Calm Calm - N/A Fog Fog
9:35 PM 53.6 °F 53.6 °F 100% 30.03 in 0.2 mi Calm Calm - N/A Fog Fog
9:55 PM 53.6 °F 53.6 °F 100% 30.03 in 0.2 mi Calm Calm - N/A Fog Fog
10:15 PM 53.6 °F 53.6 °F 100% 30.03 in 0.5 mi Calm Calm - N/A Fog Fog
10:35 PM 52.7 °F 52.7 °F 100% 30.04 in 2.5 mi Calm Calm - N/A   Overcast
10:55 PM 54.0 °F 54.0 °F 100% 30.04 in 7.0 mi Calm Calm - N/A   Overcast
11:15 PM 54.5 °F 54.5 °F 100% 30.04 in 10.0 mi Calm Calm - N/A   Overcast
11:35 PM 54.5 °F 54.5 °F 100% 30.04 in 10.0 mi Calm Calm - N/A   Mostly Cloudy
11:55 PM 54.7 °F 54.7 °F 100% 30.04 in 5.0 mi Calm Calm - N/A   Overcast